Private Wetterstation Wechselburg
Wetterdaten: Donnerstag, 09.02.2023
Datum Zeit Temp. +2m Bodentemp. Temp.+5cm Temp. Wind Windchill X Diff Temp. Feuchte +2m Feuchte +5cm Luftdruck Regen Wind Richtung Richtung Sonnenschein Taupunkt Windchill Windben
09.02.2023 00:01 -8,5 C 3,2 C 61,5 C -8,9 C -9,8 C 0,0 C 84 % 99 % 1036,6 hPa 0,0 l/m 0,0 km/h (0 Bft) W-SW 247 0 min -10,7 C -9,8 C 0,0 km/h (0 Bft)
09.02.2023 00:06 -8,5 C 3,2 C 61,5 C -9,0 C -10,1 C 0,0 C 84 % 99 % 1036,6 hPa 0,0 l/m 0,0 km/h (0 Bft) W-SW 247 0 min -10,7 C -10,1 C 0,0 km/h (0 Bft)
09.02.2023 00:11 -8,5 C 3,2 C 61,5 C -9,0 C -10,1 C 0,0 C 84 % 99 % 1036,6 hPa 0,0 l/m 0,0 km/h (0 Bft) W-SW 247 0 min -10,7 C -10,1 C 0,0 km/h (0 Bft)
09.02.2023 00:16 -8,5 C 3,2 C 61,5 C -9,0 C -10,0 C 0,0 C 84 % 99 % 1036,6 hPa 0,0 l/m 0,0 km/h (0 Bft) W-SW 247 0 min -10,7 C -10,0 C 0,0 km/h (0 Bft)
09.02.2023 00:21 -8,7 C 3,2 C 61,5 C -9,2 C -10,3 C 0,0 C 84 % 99 % 1036,6 hPa 0,0 l/m 0,0 km/h (0 Bft) W-SW 247 0 min -10,9 C -10,3 C 0,0 km/h (0 Bft)
09.02.2023 00:26 -8,8 C 3,2 C 60,0 C -9,3 C -10,4 C 0,0 C 84 % 99 % 1036,6 hPa 0,0 l/m 0,0 km/h (0 Bft) W-SW 247 0 min -11,0 C -10,4 C 0,0 km/h (0 Bft)
09.02.2023 00:31 -8,9 C 3,2 C 59,5 C -9,4 C -10,4 C 0,0 C 84 % 99 % 1036,6 hPa 0,0 l/m 0,0 km/h (0 Bft) NW 315 0 min -11,1 C -10,4 C 0,0 km/h (0 Bft)
09.02.2023 00:36 -8,9 C 3,2 C 59,7 C -9,4 C -10,4 C 0,0 C 84 % 99 % 1036,6 hPa 0,0 l/m 0,0 km/h (0 Bft) O-NO 67 0 min -11,1 C -10,4 C 0,0 km/h (0 Bft)
09.02.2023 00:41 -8,9 C 3,2 C 59,7 C -9,3 C -10,1 C 0,0 C 85 % 99 % 1036,6 hPa 0,0 l/m 0,0 km/h (0 Bft) O-NO 67 0 min -10,9 C -10,1 C 0,0 km/h (0 Bft)
09.02.2023 00:46 -8,9 C 3,2 C 59,7 C -9,4 C -10,4 C 0,0 C 85 % 99 % 1036,6 hPa 0,0 l/m 0,0 km/h (0 Bft) O-NO 67 0 min -10,9 C -10,4 C 0,0 km/h (0 Bft)
09.02.2023 00:51 -8,9 C 3,2 C 59,7 C -9,4 C -10,5 C 0,0 C 85 % 99 % 1036,6 hPa 0,0 l/m 0,0 km/h (0 Bft) O-NO 67 0 min -10,9 C -10,5 C 0,0 km/h (0 Bft)
09.02.2023 00:56 -9,1 C 3,2 C 59,7 C -9,6 C -10,7 C 0,0 C 85 % 99 % 1036,6 hPa 0,0 l/m 0,0 km/h (0 Bft) O-NO 67 0 min -11,1 C -10,7 C 0,0 km/h (0 Bft)
09.02.2023 01:01 -9,2 C 3,2 C 59,7 C -9,7 C -10,7 C 0,0 C 85 % 99 % 1036,6 hPa 0,0 l/m 0,0 km/h (0 Bft) O-NO 67 0 min -11,2 C -10,7 C 0,0 km/h (0 Bft)
09.02.2023 01:06 -9,1 C 3,2 C 57,4 C -9,7 C -10,8 C 0,0 C 85 % 99 % 1036,6 hPa 0,0 l/m 0,0 km/h (0 Bft) O-NO 67 0 min -11,1 C -10,8 C 0,0 km/h (0 Bft)
09.02.2023 01:11 -9,3 C 3,2 C 57,4 C -9,9 C -11,1 C 0,0 C 85 % 99 % 1036,6 hPa 0,0 l/m 0,0 km/h (0 Bft) O-NO 67 0 min -11,3 C -11,1 C 0,0 km/h (0 Bft)
09.02.2023 01:16 -9,3 C 3,2 C 57,4 C -9,9 C -11,1 C 0,0 C 85 % 99 % 1036,6 hPa 0,0 l/m 0,0 km/h (0 Bft) W 270 0 min -11,3 C -11,1 C 0,0 km/h (0 Bft)
09.02.2023 01:21 -9,3 C 3,2 C 57,4 C -9,9 C -11,1 C 0,0 C 85 % 99 % 1036,6 hPa 0,0 l/m 0,0 km/h (0 Bft) W 270 0 min -11,3 C -11,1 C 0,0 km/h (0 Bft)
09.02.2023 01:26 -9,3 C 3,1 C 57,4 C -9,9 C -11,0 C 0,0 C 85 % 99 % 1036,6 hPa 0,0 l/m 0,0 km/h (0 Bft) O-NO 67 0 min -11,3 C -11,0 C 0,0 km/h (0 Bft)
09.02.2023 01:31 -9,5 C 3,2 C 57,4 C -9,9 C -10,8 C 0,0 C 85 % 99 % 1036,6 hPa 0,0 l/m 0,0 km/h (0 Bft) O-NO 67 0 min -11,5 C -10,8 C 0,0 km/h (0 Bft)
09.02.2023 01:36 -9,3 C 3,2 C 57,4 C -9,8 C -10,7 C 0,0 C 85 % 99 % 1036,6 hPa 0,0 l/m 0,0 km/h (0 Bft) O-NO 67 0 min -11,3 C -10,7 C 0,0 km/h (0 Bft)
09.02.2023 01:41 -9,5 C 3,2 C 58,1 C -9,9 C -10,7 C 0,0 C 85 % 99 % 1036,6 hPa 0,0 l/m 0,0 km/h (0 Bft) O-NO 67 0 min -11,5 C -10,7 C 0,0 km/h (0 Bft)
09.02.2023 01:46 -9,3 C 3,2 C 58,1 C -9,7 C -10,5 C 0,0 C 86 % 99 % 1036,6 hPa 0,0 l/m 0,0 km/h (0 Bft) O-NO 67 0 min -11,2 C -10,5 C 0,0 km/h (0 Bft)
09.02.2023 01:51 -9,5 C 3,2 C 58,1 C -9,9 C -10,7 C 0,0 C 85 % 99 % 1036,6 hPa 0,0 l/m 0,0 km/h (0 Bft) W-SW 247 0 min -11,5 C -10,7 C 0,0 km/h (0 Bft)
09.02.2023 01:56 -9,5 C 3,2 C 58,1 C -10,0 C -11,0 C 0,0 C 85 % 99 % 1036,6 hPa 0,0 l/m 0,0 km/h (0 Bft) W-SW 247 0 min -11,5 C -11,0 C 0,0 km/h (0 Bft)
09.02.2023 02:01 -9,6 C 3,1 C 58,1 C -10,1 C -11,1 C 0,0 C 85 % 99 % 1036,6 hPa 0,0 l/m 0,0 km/h (0 Bft) W-SW 247 0 min -11,6 C -11,1 C 0,0 km/h (0 Bft)
09.02.2023 02:06 -9,6 C 3,1 C 58,1 C -10,0 C -10,8 C 0,0 C 85 % 99 % 1036,6 hPa 0,0 l/m 0,0 km/h (0 Bft) O-NO 67 0 min -11,6 C -10,8 C 0,0 km/h (0 Bft)
09.02.2023 02:11 -9,7 C 3,1 C 58,1 C -10,1 C -10,8 C 0,0 C 85 % 99 % 1036,6 hPa 0,0 l/m 0,0 km/h (0 Bft) O-NO 67 0 min -11,7 C -10,8 C 0,0 km/h (0 Bft)
09.02.2023 02:16 -9,7 C 3,1 C 58,1 C -10,1 C -11,0 C 0,0 C 85 % 99 % 1036,6 hPa 0,0 l/m 0,0 km/h (0 Bft) N-NO 22 0 min -11,7 C -11,0 C 0,0 km/h (0 Bft)
09.02.2023 02:21 -9,7 C 3,1 C 56,5 C -10,2 C -11,1 C 0,0 C 85 % 99 % 1036,6 hPa 0,0 l/m 0,0 km/h (0 Bft) SW 225 0 min -11,7 C -11,1 C 0,0 km/h (0 Bft)
09.02.2023 02:26 -9,7 C 3,1 C 56,5 C -10,2 C -11,2 C 0,0 C 85 % 99 % 1036,6 hPa 0,0 l/m 0,0 km/h (0 Bft) SW 225 0 min -11,7 C -11,2 C 0,0 km/h (0 Bft)
09.02.2023 02:31 -9,9 C 3,1 C 56,5 C -10,4 C -11,5 C 0,0 C 85 % 99 % 1036,6 hPa 0,0 l/m 0,0 km/h (0 Bft) SW 225 0 min -11,9 C -11,5 C 0,0 km/h (0 Bft)
09.02.2023 02:36 -10,0 C 3,1 C 56,5 C -10,4 C -11,3 C 0,0 C 85 % 99 % 1036,6 hPa 0,0 l/m 0,0 km/h (0 Bft) SW 225 0 min -12,0 C -11,3 C 0,0 km/h (0 Bft)
09.02.2023 02:41 -10,0 C 3,1 C 56,5 C -10,5 C -11,5 C 0,0 C 85 % 99 % 1036,6 hPa 0,0 l/m 0,0 km/h (0 Bft) NO 45 0 min -12,0 C -11,5 C 0,0 km/h (0 Bft)
09.02.2023 02:46 -10,0 C 3,1 C 56,5 C -10,4 C -11,3 C 0,0 C 85 % 99 % 1036,6 hPa 0,0 l/m 0,0 km/h (0 Bft) NO 45 0 min -12,0 C -11,3 C 0,0 km/h (0 Bft)
09.02.2023 02:51 -10,1 C 3,1 C 56,5 C -10,6 C -11,5 C 0,0 C 85 % 99 % 1036,6 hPa 0,0 l/m 0,0 km/h (0 Bft) NO 45 0 min -12,1 C -11,5 C 0,0 km/h (0 Bft)
09.02.2023 02:56 -10,1 C 3,1 C 54,9 C -10,6 C -11,5 C 0,0 C 85 % 99 % 1036,6 hPa 0,0 l/m 0,0 km/h (0 Bft) NO 45 0 min -12,1 C -11,5 C 0,0 km/h (0 Bft)
09.02.2023 03:01 -10,1 C 3,1 C 54,9 C -10,6 C -11,6 C 0,0 C 85 % 99 % 1036,6 hPa 0,0 l/m 0,0 km/h (0 Bft) NO 45 0 min -12,1 C -11,6 C 0,0 km/h (0 Bft)
09.02.2023 03:06 -10,1 C 3,1 C 54,9 C -10,6 C -11,7 C 0,0 C 85 % 99 % 1036,6 hPa 0,0 l/m 0,0 km/h (0 Bft) NO 45 0 min -12,1 C -11,7 C 0,0 km/h (0 Bft)
09.02.2023 03:11 -10,2 C 3,1 C 54,9 C -10,7 C -11,7 C 0,0 C 85 % 99 % 1036,6 hPa 0,0 l/m 0,0 km/h (0 Bft) NO 45 0 min -12,2 C -11,7 C 0,0 km/h (0 Bft)
09.02.2023 03:16 -10,1 C 3,1 C 54,9 C -10,6 C -11,5 C 0,0 C 86 % 99 % 1036,6 hPa 0,0 l/m 0,0 km/h (0 Bft) NO 45 0 min -12,0 C -11,5 C 0,0 km/h (0 Bft)
09.02.2023 03:21 -10,1 C 3,1 C 54,9 C -10,5 C -11,3 C 0,0 C 86 % 99 % 1036,6 hPa 0,0 l/m 0,0 km/h (0 Bft) O-NO 67 0 min -12,0 C -11,3 C 0,0 km/h (0 Bft)
09.02.2023 03:26 -10,1 C 3,1 C 54,9 C -10,6 C -11,5 C 0,0 C 86 % 99 % 1036,6 hPa 0,0 l/m 0,0 km/h (0 Bft) O-NO 67 0 min -12,0 C -11,5 C 0,0 km/h (0 Bft)
09.02.2023 03:31 -10,1 C 3,1 C 53,4 C -10,6 C -11,5 C 0,0 C 86 % 99 % 1036,6 hPa 0,0 l/m 0,0 km/h (0 Bft) O-NO 67 0 min -12,0 C -11,5 C 0,0 km/h (0 Bft)
09.02.2023 03:36 -10,3 C 3,1 C 53,4 C -10,8 C -11,7 C 0,0 C 86 % 99 % 1036,6 hPa 0,0 l/m 0,0 km/h (0 Bft) O-NO 67 0 min -12,2 C -11,7 C 0,0 km/h (0 Bft)
09.02.2023 03:41 -10,4 C 3,1 C 53,4 C -10,9 C -11,8 C 0,0 C 86 % 99 % 1036,6 hPa 0,0 l/m 0,0 km/h (0 Bft) O-NO 67 0 min -12,3 C -11,8 C 0,0 km/h (0 Bft)
09.02.2023 03:46 -10,3 C 3,1 C 53,4 C -10,8 C -11,9 C 0,0 C 86 % 99 % 1036,6 hPa 0,0 l/m 0,0 km/h (0 Bft) O-NO 67 0 min -12,2 C -11,9 C 0,0 km/h (0 Bft)
09.02.2023 03:51 -10,5 C 3,1 C 51,2 C -11,0 C -11,9 C 0,0 C 86 % 99 % 1036,6 hPa 0,0 l/m 0,0 km/h (0 Bft) O-NO 67 0 min -12,4 C -11,9 C 0,0 km/h (0 Bft)
09.02.2023 03:56 -10,5 C 3,1 C 51,2 C -11,0 C -12,1 C 0,0 C 86 % 99 % 1036,6 hPa 0,0 l/m 0,0 km/h (0 Bft) O-NO 67 0 min -12,4 C -12,1 C 0,0 km/h (0 Bft)
09.02.2023 04:01 -10,5 C 3,1 C 51,2 C -11,0 C -11,9 C 0,0 C 86 % 99 % 1036,6 hPa 0,0 l/m 0,0 km/h (0 Bft) O-NO 67 0 min -12,4 C -11,9 C 0,0 km/h (0 Bft)
09.02.2023 04:06 -10,5 C 3,1 C 51,2 C -11,0 C -11,9 C 0,0 C 86 % 99 % 1036,6 hPa 0,0 l/m 0,0 km/h (0 Bft) O-NO 67 0 min -12,4 C -11,9 C 0,0 km/h (0 Bft)
09.02.2023 04:11 -10,5 C 3,1 C 50,7 C -11,0 C -12,1 C 0,0 C 86 % 99 % 1036,6 hPa 0,0 l/m 0,0 km/h (0 Bft) O-NO 67 0 min -12,4 C -12,1 C 0,0 km/h (0 Bft)
09.02.2023 04:16 -10,5 C 3,1 C 50,7 C -11,1 C -12,2 C 0,0 C 86 % 99 % 1036,6 hPa 0,0 l/m 0,0 km/h (0 Bft) O-NO 67 0 min -12,4 C -12,2 C 0,0 km/h (0 Bft)
09.02.2023 04:21 -10,5 C 3,1 C 50,7 C -11,1 C -12,2 C 0,0 C 86 % 99 % 1036,6 hPa 0,0 l/m 0,0 km/h (0 Bft) O-NO 67 0 min -12,4 C -12,2 C 0,0 km/h (0 Bft)
09.02.2023 04:26 -10,5 C 3,1 C 49,6 C -11,0 C -12,1 C 0,0 C 86 % 99 % 1036,6 hPa 0,0 l/m 0,0 km/h (0 Bft) S-SO 157 0 min -12,4 C -12,1 C 0,0 km/h (0 Bft)
09.02.2023 04:31 -10,5 C 3,1 C 49,6 C -11,0 C -11,9 C 0,0 C 86 % 99 % 1036,6 hPa 0,0 l/m 0,0 km/h (0 Bft) S-SO 157 0 min -12,4 C -11,9 C 0,0 km/h (0 Bft)
09.02.2023 04:36 -10,6 C 3,1 C 49,6 C -11,0 C -11,8 C 0,0 C 86 % 99 % 1036,6 hPa 0,0 l/m 0,0 km/h (0 Bft) S-SO 157 0 min -12,5 C -11,8 C 0,0 km/h (0 Bft)
09.02.2023 04:41 -10,5 C 3,1 C 50,3 C -10,9 C -11,8 C 0,0 C 86 % 99 % 1036,6 hPa 0,0 l/m 0,0 km/h (0 Bft) S-SO 157 0 min -12,4 C -11,8 C 0,0 km/h (0 Bft)
09.02.2023 04:46 -10,5 C 3,1 C 50,9 C -11,0 C -12,1 C 0,0 C 86 % 99 % 1036,6 hPa 0,0 l/m 0,0 km/h (0 Bft) S-SO 157 0 min -12,4 C -12,1 C 0,0 km/h (0 Bft)
09.02.2023 04:51 -10,7 C 3,1 C 50,9 C -11,2 C -12,2 C 0,0 C 86 % 99 % 1036,6 hPa 0,0 l/m 0,0 km/h (0 Bft) S-SO 157 0 min -12,6 C -12,2 C 0,0 km/h (0 Bft)
09.02.2023 04:56 -10,7 C 3,1 C 50,9 C -11,2 C -12,3 C 0,0 C 86 % 99 % 1036,6 hPa 0,0 l/m 0,0 km/h (0 Bft) S-SO 157 0 min -12,6 C -12,3 C 0,0 km/h (0 Bft)
09.02.2023 05:01 -10,7 C 3,1 C 50,9 C -11,2 C -12,3 C 0,0 C 86 % 99 % 1036,6 hPa 0,0 l/m 0,0 km/h (0 Bft) S-SO 157 0 min -12,6 C -12,3 C 0,0 km/h (0 Bft)
09.02.2023 05:06 -10,8 C 3,1 C 50,9 C -11,3 C -12,3 C 0,0 C 86 % 99 % 1036,6 hPa 0,0 l/m 0,0 km/h (0 Bft) S-SO 157 0 min -12,7 C -12,3 C 0,0 km/h (0 Bft)
09.02.2023 05:11 -10,7 C 3,1 C 50,9 C -11,3 C -12,4 C 0,0 C 86 % 99 % 1036,6 hPa 0,0 l/m 0,0 km/h (0 Bft) S-SO 157 0 min -12,6 C -12,4 C 0,0 km/h (0 Bft)
09.02.2023 05:16 -10,9 C 3,1 C 50,9 C -11,4 C -12,4 C 0,0 C 86 % 99 % 1036,6 hPa 0,0 l/m 0,0 km/h (0 Bft) S-SO 157 0 min -12,8 C -12,4 C 0,0 km/h (0 Bft)
09.02.2023 05:21 -10,9 C 3,0 C 49,3 C -11,5 C -12,6 C 0,0 C 86 % 99 % 1036,6 hPa 0,0 l/m 0,0 km/h (0 Bft) S-SO 157 0 min -12,8 C -12,6 C 0,0 km/h (0 Bft)
09.02.2023 05:26 -11,0 C 3,1 C 49,3 C -11,6 C -12,7 C 0,0 C 86 % 99 % 1036,6 hPa 0,0 l/m 0,0 km/h (0 Bft) S-SO 157 0 min -12,9 C -12,7 C 0,0 km/h (0 Bft)
09.02.2023 05:31 -10,9 C 3,1 C 49,3 C -11,5 C -12,6 C 0,0 C 86 % 99 % 1036,6 hPa 0,0 l/m 0,0 km/h (0 Bft) S 180 0 min -12,8 C -12,6 C 0,0 km/h (0 Bft)
09.02.2023 05:36 -10,9 C 3,1 C 49,3 C -11,4 C -12,3 C 0,0 C 86 % 99 % 1036,6 hPa 0,0 l/m 0,0 km/h (0 Bft) S 180 0 min -12,8 C -12,3 C 0,0 km/h (0 Bft)
09.02.2023 05:41 -10,9 C 3,1 C 49,3 C -11,3 C -12,2 C 0,0 C 86 % 99 % 1036,6 hPa 0,0 l/m 0,0 km/h (0 Bft) SW 225 0 min -12,8 C -12,2 C 0,0 km/h (0 Bft)
09.02.2023 05:46 -10,8 C 3,1 C 49,3 C -11,3 C -12,2 C 0,0 C 86 % 99 % 1036,6 hPa 0,0 l/m 0,0 km/h (0 Bft) S 180 0 min -12,7 C -12,2 C 0,0 km/h (0 Bft)
09.02.2023 05:51 -10,8 C 3,1 C 49,3 C -11,2 C -12,1 C 0,0 C 86 % 99 % 1036,6 hPa 0,0 l/m 0,0 km/h (0 Bft) S 180 0 min -12,7 C -12,1 C 0,0 km/h (0 Bft)
09.02.2023 05:56 -10,8 C 3,0 C 49,1 C -11,2 C -11,9 C 0,0 C 86 % 99 % 1036,6 hPa 0,0 l/m 0,0 km/h (0 Bft) S 180 0 min -12,7 C -11,9 C 0,0 km/h (0 Bft)
09.02.2023 06:01 -10,8 C 3,1 C 49,1 C -11,2 C -12,1 C 0,0 C 86 % 99 % 1036,6 hPa 0,0 l/m 0,0 km/h (0 Bft) S 180 0 min -12,7 C -12,1 C 0,0 km/h (0 Bft)
09.02.2023 06:06 -10,7 C 3,1 C 49,1 C -11,2 C -12,3 C 0,0 C 86 % 99 % 1036,6 hPa 0,0 l/m 0,0 km/h (0 Bft) S 180 0 min -12,6 C -12,3 C 0,0 km/h (0 Bft)
09.02.2023 06:11 -10,9 C 3,0 C 49,1 C -11,5 C -12,6 C 0,0 C 86 % 99 % 1036,6 hPa 0,0 l/m 0,0 km/h (0 Bft) S 180 0 min -12,8 C -12,6 C 0,0 km/h (0 Bft)
09.02.2023 06:16 -10,9 C 3,0 C 49,1 C -11,4 C -12,3 C 0,0 C 86 % 99 % 1036,6 hPa 0,0 l/m 0,0 km/h (0 Bft) O-NO 67 0 min -12,8 C -12,3 C 0,0 km/h (0 Bft)
09.02.2023 06:21 -10,9 C 3,0 C 49,1 C -11,4 C -12,3 C 0,0 C 86 % 99 % 1036,6 hPa 0,0 l/m 0,0 km/h (0 Bft) O-NO 67 0 min -12,8 C -12,3 C 0,0 km/h (0 Bft)
09.02.2023 06:26 -10,9 C 3,0 C 49,1 C -11,4 C -12,3 C 0,0 C 86 % 99 % 1036,6 hPa 0,0 l/m 0,0 km/h (0 Bft) O-NO 67 0 min -12,8 C -12,3 C 0,0 km/h (0 Bft)
09.02.2023 06:31 -10,9 C 3,0 C 48,7 C -11,4 C -12,3 C 0,0 C 86 % 99 % 1036,6 hPa 0,0 l/m 0,0 km/h (0 Bft) S-SW 202 0 min -12,8 C -12,3 C 0,0 km/h (0 Bft)
09.02.2023 06:36 -10,9 C 3,0 C 48,5 C -11,4 C -12,4 C 0,0 C 86 % 99 % 1036,6 hPa 0,0 l/m 0,0 km/h (0 Bft) S-SW 202 0 min -12,8 C -12,4 C 0,0 km/h (0 Bft)
09.02.2023 06:41 -10,9 C 3,0 C 48,5 C -11,4 C -12,4 C 0,0 C 86 % 99 % 1034,8 hPa 0,0 l/m 0,0 km/h (0 Bft) SW 225 0 min -12,8 C -12,4 C 0,0 km/h (0 Bft)
09.02.2023 06:46 -11,0 C 3,0 C 48,5 C -11,5 C -12,6 C 0,0 C 86 % 99 % 1034,8 hPa 0,0 l/m 0,0 km/h (0 Bft) SW 225 0 min -12,9 C -12,6 C 0,0 km/h (0 Bft)
09.02.2023 06:51 -11,1 C 3,0 C 48,5 C -11,6 C -12,7 C 0,0 C 86 % 99 % 1034,8 hPa 0,0 l/m 0,0 km/h (0 Bft) SW 225 0 min -13,0 C -12,7 C 0,0 km/h (0 Bft)
09.02.2023 06:56 -11,1 C 3,0 C 48,5 C -11,6 C -12,7 C 0,0 C 86 % 99 % 1034,8 hPa 0,0 l/m 0,0 km/h (0 Bft) SW 225 0 min -13,0 C -12,7 C 0,0 km/h (0 Bft)
09.02.2023 07:01 -11,1 C 3,0 C 48,0 C -11,6 C -12,7 C 0,0 C 86 % 99 % 1034,8 hPa 0,0 l/m 0,0 km/h (0 Bft) SW 225 0 min -13,0 C -12,7 C 0,0 km/h (0 Bft)
09.02.2023 07:06 -11,2 C 3,0 C 48,0 C -11,7 C -12,7 C 0,0 C 86 % 99 % 1034,8 hPa 0,0 l/m 0,0 km/h (0 Bft) SW 225 0 min -13,1 C -12,7 C 0,0 km/h (0 Bft)
09.02.2023 07:11 -11,1 C 3,0 C 48,7 C -11,5 C -12,4 C 0,0 C 86 % 99 % 1034,8 hPa 0,0 l/m 0,0 km/h (0 Bft) SW 225 0 min -13,0 C -12,4 C 0,0 km/h (0 Bft)
09.02.2023 07:16 -11,1 C 3,0 C 48,7 C -11,5 C -12,4 C 0,0 C 86 % 99 % 1034,8 hPa 0,0 l/m 0,0 km/h (0 Bft) SW 225 0 min -13,0 C -12,4 C 0,0 km/h (0 Bft)
09.02.2023 07:21 -11,1 C 3,0 C 48,7 C -11,6 C -12,6 C 0,0 C 86 % 99 % 1034,8 hPa 0,0 l/m 0,0 km/h (0 Bft) SW 225 0 min -13,0 C -12,6 C 0,0 km/h (0 Bft)
09.02.2023 07:26 -11,1 C 3,0 C 48,9 C -11,5 C -12,4 C 0,0 C 86 % 99 % 1034,8 hPa 0,0 l/m 0,0 km/h (0 Bft) O-NO 67 0 min -13,0 C -12,4 C 0,0 km/h (0 Bft)
09.02.2023 07:31 -10,9 C 3,0 C 48,9 C -11,4 C -12,3 C 0,0 C 86 % 99 % 1034,8 hPa 0,0 l/m 0,0 km/h (0 Bft) O-NO 67 0 min -12,8 C -12,3 C 0,0 km/h (0 Bft)
09.02.2023 07:36 -10,9 C 3,0 C 48,9 C -11,4 C -12,3 C 0,0 C 86 % 99 % 1034,8 hPa 0,0 l/m 0,0 km/h (0 Bft) W-SW 247 0 min -12,8 C -12,3 C 0,0 km/h (0 Bft)
09.02.2023 07:41 -10,9 C 3,0 C 48,9 C -11,4 C -12,4 C 0,0 C 86 % 99 % 1034,8 hPa 0,0 l/m 0,0 km/h (0 Bft) W-SW 247 0 min -12,8 C -12,4 C 0,0 km/h (0 Bft)
09.02.2023 07:46 -10,9 C 3,0 C 49,3 C -11,4 C -12,3 C 0,0 C 86 % 99 % 1034,8 hPa 0,0 l/m 0,0 km/h (0 Bft) W-SW 247 0 min -12,8 C -12,3 C 0,0 km/h (0 Bft)
09.02.2023 07:51 -10,9 C 3,0 C 49,3 C -11,4 C -12,3 C 0,0 C 86 % 99 % 1034,8 hPa 0,0 l/m 0,0 km/h (0 Bft) W 270 0 min -12,8 C -12,3 C 0,0 km/h (0 Bft)
09.02.2023 07:56 -10,9 C 3,0 C 49,3 C -11,3 C -12,2 C 0,0 C 86 % 99 % 1034,8 hPa 0,0 l/m 0,0 km/h (0 Bft) S 180 0 min -12,8 C -12,2 C 0,0 km/h (0 Bft)
09.02.2023 08:01 -10,9 C 3,0 C 49,3 C -11,2 C -11,8 C 0,0 C 86 % 99 % 1034,8 hPa 0,0 l/m 0,0 km/h (0 Bft) S 180 0 min -12,8 C -11,8 C 0,0 km/h (0 Bft)
09.02.2023 08:42 -10,1 C 3,0 C 54,2 C -10,1 C -10,1 C 0,0 C 87 % 99 % 1034,8 hPa 0,0 l/m 0,0 km/h (0 Bft) W-SW 247 0 min -11,8 C -10,1 C 0,0 km/h (0 Bft)
09.02.2023 08:45 -10,1 C 3,0 C 54,2 C -10,1 C -10,1 C 0,0 C 87 % 99 % 1034,8 hPa 0,0 l/m 0,0 km/h (0 Bft) W-SW 247 0 min -11,8 C -10,1 C 0,0 km/h (0 Bft)
09.02.2023 08:50 -10,1 C 3,0 C 54,2 C -10,2 C -10,3 C 0,0 C 87 % 99 % 1034,8 hPa 0,0 l/m 0,0 km/h (0 Bft) W-SW 247 0 min -11,8 C -10,3 C 0,0 km/h (0 Bft)
09.02.2023 08:55 -10,1 C 3,0 C 54,2 C -10,1 C -10,1 C 0,0 C 87 % 99 % 1034,8 hPa 0,0 l/m 0,0 km/h (0 Bft) W-SW 247 0 min -11,8 C -10,1 C 0,0 km/h (0 Bft)
09.02.2023 09:00 -9,9 C 3,0 C 54,2 C -10,0 C -10,1 C 0,0 C 87 % 99 % 1034,8 hPa 0,0 l/m 0,0 km/h (0 Bft) W-SW 247 0 min -11,6 C -10,1 C 0,0 km/h (0 Bft)
09.02.2023 09:05 -9,9 C 3,0 C 57,2 C -9,4 C -9,4 C 0,5 C 87 % 99 % 1034,8 hPa 0,0 l/m 0,0 km/h (0 Bft) W-SW 247 0 min -11,6 C -9,4 C 0,0 km/h (0 Bft)
09.02.2023 09:10 -9,7 C 3,0 C 57,2 C -8,9 C -8,9 C 0,8 C 87 % 99 % 1034,8 hPa 0,0 l/m 0,0 km/h (0 Bft) W-SW 247 0 min -11,4 C -8,9 C 0,0 km/h (0 Bft)
09.02.2023 09:15 -9,3 C 3,0 C 57,2 C -8,4 C -8,4 C 0,9 C 87 % 99 % 1034,8 hPa 0,0 l/m 0,0 km/h (0 Bft) W-SW 247 0 min -11,1 C -8,4 C 0,0 km/h (0 Bft)
09.02.2023 09:20 -9,2 C 3,0 C 57,2 C -8,0 C -8,0 C 1,2 C 88 % 99 % 1034,8 hPa 0,0 l/m 0,0 km/h (0 Bft) W-SW 247 0 min -10,8 C -8,0 C 0,0 km/h (0 Bft)
09.02.2023 09:25 -8,9 C 2,9 C 57,2 C -8,3 C -8,3 C 0,6 C 88 % 99 % 1034,8 hPa 0,0 l/m 0,0 km/h (0 Bft) W-SW 247 0 min -10,5 C -8,3 C 0,0 km/h (0 Bft)
09.02.2023 09:30 -8,9 C 2,9 C 57,2 C -8,3 C -8,3 C 0,6 C 88 % 99 % 1034,8 hPa 0,0 l/m 0,0 km/h (0 Bft) W-SW 247 0 min -10,5 C -8,3 C 0,0 km/h (0 Bft)
09.02.2023 09:35 -8,5 C 2,9 C 57,2 C -7,7 C -7,7 C 0,8 C 88 % 99 % 1034,8 hPa 0,0 l/m 0,0 km/h (0 Bft) W-SW 247 0 min -10,1 C -7,7 C 0,0 km/h (0 Bft)
09.02.2023 09:40 -8,5 C 2,9 C 63,7 C -7,5 C -7,5 C 1,0 C 88 % 99 % 1034,8 hPa 0,0 l/m 0,0 km/h (0 Bft) W-SW 247 0 min -10,1 C -7,5 C 0,0 km/h (0 Bft)
09.02.2023 09:45 -8,1 C 2,9 C 63,7 C -7,3 C -7,3 C 0,8 C 88 % 99 % 1034,8 hPa 0,0 l/m 0,0 km/h (0 Bft) W-SW 247 0 min -9,7 C -7,3 C 0,0 km/h (0 Bft)
09.02.2023 09:50 -8,0 C 2,9 C 63,7 C -7,1 C -7,1 C 0,9 C 88 % 99 % 1034,8 hPa 0,0 l/m 0,0 km/h (0 Bft) W-SW 247 0 min -9,6 C -7,1 C 0,0 km/h (0 Bft)
09.02.2023 09:55 -7,6 C 2,8 C 63,7 C -5,4 C -5,4 C 2,2 C 89 % 99 % 1034,8 hPa 0,0 l/m 0,0 km/h (0 Bft) W-SW 247 0 min -9,1 C -5,4 C 0,0 km/h (0 Bft)
09.02.2023 10:00 -7,3 C 2,8 C 67,7 C -5,0 C -5,0 C 2,3 C 89 % 99 % 1034,8 hPa 0,0 l/m 0,0 km/h (0 Bft) W-SW 247 0 min -8,8 C -5,0 C 0,0 km/h (0 Bft)
09.02.2023 10:05 -7,1 C 2,8 C 67,7 C -4,8 C -4,8 C 2,3 C 89 % 99 % 1034,8 hPa 0,0 l/m 0,0 km/h (0 Bft) W-SW 247 0 min -8,6 C -4,8 C 0,0 km/h (0 Bft)
09.02.2023 10:11 -6,5 C 2,7 C 70,8 C -5,1 C -5,1 C 1,4 C 89 % 99 % 1034,8 hPa 0,0 l/m 0,0 km/h (0 Bft) N 0 0 min -8,0 C -5,1 C 0,0 km/h (0 Bft)
09.02.2023 10:26 -5,6 C 2,9 C 70,8 C -4,0 C -4,0 C 1,6 C 89 % 99 % 1034,8 hPa 0,0 l/m 0,0 km/h (0 Bft) SW 225 0 min -7,1 C -4,0 C 0,0 km/h (0 Bft)
09.02.2023 10:42 -4,7 C 2,7 C 70,8 C -3,1 C -3,1 C 1,6 C 89 % 99 % 1034,8 hPa 0,0 l/m 0,0 km/h (0 Bft) S-SW 202 0 min -6,2 C -3,1 C 0,0 km/h (0 Bft)
09.02.2023 10:50 -4,5 C 2,7 C 70,8 C -3,1 C -3,1 C 1,4 C 89 % 99 % 1034,8 hPa 0,0 l/m 0,0 km/h (0 Bft) S-SW 202 0 min -6,0 C -3,1 C 0,0 km/h (0 Bft)
09.02.2023 10:55 -4,1 C 2,7 C 73,0 C -2,6 C -2,6 C 1,5 C 89 % 99 % 1034,8 hPa 0,0 l/m 0,0 km/h (0 Bft) S-SW 202 0 min -5,6 C -2,6 C 0,0 km/h (0 Bft)
09.02.2023 11:00 -3,7 C 2,7 C 73,0 C -2,4 C -2,4 C 1,3 C 89 % 99 % 1034,8 hPa 0,0 l/m 0,0 km/h (0 Bft) SW 225 0 min -5,2 C -2,4 C 0,0 km/h (0 Bft)
09.02.2023 11:05 -3,3 C 2,7 C 73,0 C -1,9 C -1,9 C 1,4 C 89 % 99 % 1034,8 hPa 0,0 l/m 0,0 km/h (0 Bft) SW 225 0 min -4,8 C -1,9 C 0,0 km/h (0 Bft)
09.02.2023 11:10 -3,2 C 2,7 C 73,0 C -1,6 C -1,6 C 1,6 C 89 % 99 % 1034,8 hPa 0,0 l/m 0,0 km/h (0 Bft) SW 225 0 min -4,7 C -1,6 C 0,0 km/h (0 Bft)
09.02.2023 11:15 -2,9 C 2,7 C 73,0 C -0,1 C -0,1 C 2,8 C 89 % 99 % 1034,8 hPa 0,0 l/m 0,0 km/h (0 Bft) W-SW 247 0 min -4,5 C -0,1 C 0,0 km/h (0 Bft)
09.02.2023 11:20 -2,5 C 2,7 C 73,0 C 0,5 C 0,5 C 3,0 C 89 % 99 % 1034,8 hPa 0,0 l/m 0,0 km/h (0 Bft) S-SO 157 0 min -4,1 C 0,5 C 0,0 km/h (0 Bft)
09.02.2023 11:25 -2,1 C 2,7 C 73,0 C 0,8 C 0,8 C 2,9 C 89 % 99 % 1034,8 hPa 0,0 l/m 0,0 km/h (0 Bft) SW 225 0 min -3,7 C 0,8 C 0,0 km/h (0 Bft)
09.02.2023 11:30 -1,7 C 2,7 C 73,0 C 1,1 C 1,1 C 2,8 C 89 % 99 % 1034,8 hPa 0,0 l/m 0,0 km/h (0 Bft) SW 225 0 min -3,3 C 1,1 C 0,0 km/h (0 Bft)
09.02.2023 11:35 -1,3 C 2,7 C 73,0 C 0,9 C 0,9 C 2,2 C 88 % 99 % 1034,8 hPa 0,0 l/m 0,0 km/h (0 Bft) SO 135 0 min -3,0 C 0,9 C 0,0 km/h (0 Bft)
09.02.2023 11:40 -1,1 C 2,7 C 73,0 C 1,7 C 1,7 C 2,8 C 88 % 99 % 1034,8 hPa 0,0 l/m 0,0 km/h (0 Bft) S 180 0 min -2,8 C 1,7 C 0,0 km/h (0 Bft)
09.02.2023 11:45 -0,7 C 2,7 C 73,0 C 2,8 C 2,8 C 3,5 C 87 % 99 % 1034,8 hPa 0,0 l/m 0,0 km/h (0 Bft) SW 225 5 min -2,6 C 2,8 C 0,0 km/h (0 Bft)
09.02.2023 11:50 -0,5 C 2,7 C 73,0 C 3,3 C 3,3 C 3,8 C 86 % 99 % 1034,8 hPa 0,0 l/m 0,0 km/h (0 Bft) SW 225 5 min -2,5 C 3,3 C 0,0 km/h (0 Bft)
09.02.2023 11:55 -0,4 C 2,7 C 73,0 C 2,4 C 2,4 C 2,8 C 85 % 99 % 1034,8 hPa 0,0 l/m 0,0 km/h (0 Bft) SW 225 0 min -2,6 C 2,4 C 0,0 km/h (0 Bft)
09.02.2023 12:00 -0,1 C 2,7 C 73,0 C 2,8 C 2,8 C 2,9 C 84 % 99 % 1034,8 hPa 0,0 l/m 0,2 km/h (0 Bft) W 270 0 min -2,5 C 2,8 C 0,0 km/h (0 Bft)
09.02.2023 12:05 0,3 C 2,7 C 73,0 C 3,0 C 3,0 C 2,7 C 82 % 99 % 1034,8 hPa 0,0 l/m 0,2 km/h (0 Bft) SW 225 0 min -2,4 C 3,0 C 4,0 km/h (1 Bft)
09.02.2023 12:11 0,9 C 2,7 C 73,0 C 4,2 C 4,2 C 3,3 C 78 % 99 % 1034,8 hPa 0,0 l/m 0,3 km/h (0 Bft) N 0 6 min -2,5 C 4,2 C 3,5 km/h (1 Bft)
09.02.2023 12:16 1,1 C 2,7 C 73,0 C 5,1 C 5,1 C 4,0 C 77 % 99 % 1034,8 hPa 0,0 l/m 0,3 km/h (0 Bft) S-SW 202 5 min -2,5 C 5,1 C 0,0 km/h (0 Bft)
09.02.2023 12:21 1,2 C 2,7 C 73,0 C 6,0 C 6,0 C 4,8 C 75 % 99 % 1034,8 hPa 0,0 l/m 0,3 km/h (0 Bft) SW 225 5 min -2,7 C 6,0 C 0,0 km/h (0 Bft)
09.02.2023 12:26 1,2 C 2,7 C 73,0 C 6,0 C 6,0 C 4,8 C 74 % 99 % 1034,8 hPa 0,0 l/m 0,2 km/h (0 Bft) W-SW 247 5 min -2,9 C 6,0 C 0,0 km/h (0 Bft)
09.02.2023 12:31 1,2 C 2,7 C 73,0 C 6,1 C 6,1 C 4,9 C 73 % 99 % 1034,8 hPa 0,0 l/m 0,2 km/h (0 Bft) SW 225 5 min -3,1 C 6,1 C 0,0 km/h (0 Bft)
09.02.2023 12:32 1,2 C 2,7 C 73,0 C 6,1 C 6,1 C 4,9 C 73 % 99 % 1034,8 hPa 0,0 l/m 0,2 km/h (0 Bft) SW 225 1 min -3,1 C 6,1 C 0,0 km/h (0 Bft)
09.02.2023 12:35 1,2 C 2,7 C 73,0 C 6,1 C 6,1 C 4,9 C 73 % 99 % 1034,8 hPa 0,0 l/m 0,2 km/h (0 Bft) SW 225 3 min -3,1 C 6,1 C 0,0 km/h (0 Bft)
09.02.2023 12:40 1,3 C 2,7 C 73,0 C 6,8 C 6,8 C 5,5 C 72 % 99 % 1034,8 hPa 0,0 l/m 0,0 km/h (0 Bft) W-SW 247 5 min -3,2 C 6,8 C 0,0 km/h (0 Bft)
09.02.2023 12:45 1,2 C 2,7 C 3,1 C 6,6 C 6,6 C 5,4 C 71 % 99 % 1034,8 hPa 0,0 l/m 0,2 km/h (0 Bft) S-SW 202 5 min -3,5 C 6,6 C 0,0 km/h (0 Bft)
09.02.2023 12:50 1,5 C 2,6 C 3,1 C 6,7 C 6,7 C 5,2 C 71 % 99 % 1034,8 hPa 0,0 l/m 0,2 km/h (0 Bft) W-SW 247 5 min -3,2 C 6,7 C 2,1 km/h (1 Bft)
09.02.2023 12:55 1,5 C 2,6 C 5,1 C 7,0 C 7,0 C 5,5 C 69 % 99 % 1034,8 hPa 0,0 l/m 0,8 km/h (0 Bft) W 270 5 min -3,6 C 7,0 C 5,3 km/h (1 Bft)
09.02.2023 13:00 1,7 C 2,6 C 5,1 C 7,3 C 7,3 C 5,6 C 69 % 99 % 1034,8 hPa 0,0 l/m 1,0 km/h (0 Bft) SW 225 5 min -3,4 C 7,3 C 3,5 km/h (1 Bft)
09.02.2023 13:05 1,9 C 2,6 C 5,1 C 7,2 C 7,2 C 5,3 C 68 % 99 % 1034,8 hPa 0,0 l/m 0,3 km/h (0 Bft) S-SO 157 5 min -3,4 C 7,2 C 0,0 km/h (0 Bft)
09.02.2023 13:10 2,1 C 2,6 C 5,1 C 7,7 C 7,7 C 5,6 C 67 % 99 % 1034,8 hPa 0,0 l/m 0,3 km/h (0 Bft) W-SW 247 5 min -3,4 C 7,7 C 0,0 km/h (0 Bft)
09.02.2023 13:15 2,5 C 2,6 C 5,1 C 8,5 C 8,5 C 6,0 C 65 % 99 % 1034,8 hPa 0,0 l/m 0,6 km/h (0 Bft) S 180 5 min -3,4 C 8,5 C 6,3 km/h (2 Bft)
09.02.2023 13:20 2,7 C 2,6 C 12,6 C 8,5 C 8,5 C 5,8 C 64 % 99 % 1034,8 hPa 0,0 l/m 0,6 km/h (0 Bft) S-SO 157 5 min -3,4 C 8,5 C 0,0 km/h (0 Bft)
09.02.2023 13:25 2,8 C 2,6 C 12,6 C 8,5 C 8,5 C 5,7 C 62 % 99 % 1032,7 hPa 0,0 l/m 1,0 km/h (0 Bft) SO 135 5 min -3,7 C 8,5 C 3,7 km/h (1 Bft)
09.02.2023 13:30 2,8 C 2,6 C 12,6 C 8,5 C 8,5 C 5,7 C 61 % 99 % 1032,7 hPa 0,0 l/m 1,4 km/h (1 Bft) SO 135 5 min -4,0 C 8,5 C 4,2 km/h (1 Bft)
09.02.2023 13:35 3,1 C 2,6 C 12,6 C 8,3 C 8,3 C 5,2 C 60 % 99 % 1032,7 hPa 0,0 l/m 2,9 km/h (1 Bft) S 180 5 min -3,9 C 8,3 C 10,0 km/h (2 Bft)
09.02.2023 13:40 3,4 C 2,6 C 12,6 C 8,7 C 8,7 C 5,3 C 60 % 99 % 1032,7 hPa 0,0 l/m 2,1 km/h (1 Bft) S-SO 157 5 min -3,6 C 8,7 C 0,0 km/h (0 Bft)
09.02.2023 13:45 3,9 C 2,6 C 12,6 C 9,4 C 9,4 C 5,5 C 59 % 99 % 1032,7 hPa 0,0 l/m 0,8 km/h (0 Bft) W-NW 292 5 min -3,4 C 9,4 C 0,0 km/h (0 Bft)
09.02.2023 13:50 4,1 C 2,6 C 12,6 C 9,7 C 9,7 C 5,6 C 59 % 99 % 1032,7 hPa 0,0 l/m 0,6 km/h (0 Bft) O-NO 67 5 min -3,2 C 9,7 C 2,9 km/h (1 Bft)
09.02.2023 13:55 4,1 C 2,6 C 17,6 C 9,6 C 9,6 C 5,5 C 56 % 99 % 1032,7 hPa 0,0 l/m 1,9 km/h (1 Bft) S 180 5 min -3,9 C 9,6 C 11,6 km/h (2 Bft)
09.02.2023 14:00 4,1 C 2,6 C 17,6 C 9,3 C 9,3 C 5,2 C 55 % 99 % 1032,7 hPa 0,0 l/m 2,4 km/h (1 Bft) S-SO 157 5 min -4,1 C 9,3 C 5,1 km/h (1 Bft)
09.02.2023 14:05 4,4 C 2,6 C 17,6 C 9,7 C 9,7 C 5,3 C 56 % 99 % 1032,7 hPa 0,0 l/m 1,8 km/h (1 Bft) SW 225 5 min -3,6 C 9,7 C 0,0 km/h (0 Bft)
09.02.2023 14:11 4,7 C 2,6 C 17,6 C 10,0 C 10,0 C 5,3 C 55 % 99 % 1032,7 hPa 0,0 l/m 1,1 km/h (1 Bft) N 0 6 min -3,6 C 10,0 C 1,8 km/h (1 Bft)
09.02.2023 14:16 4,7 C 2,6 C 0,0 C 9,9 C 9,9 C 5,2 C 55 % 0 % 1032,7 hPa 0,0 l/m 1,3 km/h (1 Bft) SW 225 5 min -3,6 C 9,9 C 4,0 km/h (1 Bft)
09.02.2023 14:21 4,5 C 2,6 C 0,0 C 9,9 C 9,9 C 5,4 C 54 % 0 % 1032,7 hPa 0,0 l/m 1,3 km/h (1 Bft) SW 225 5 min -4,0 C 9,9 C 4,0 km/h (1 Bft)
09.02.2023 14:26 4,4 C 2,6 C 0,0 C 9,9 C 9,9 C 5,5 C 54 % 0 % 1032,7 hPa 0,0 l/m 1,3 km/h (1 Bft) SW 225 5 min -4,1 C 9,9 C 4,0 km/h (1 Bft)
09.02.2023 14:31 4,4 C 2,6 C 23,2 C 9,9 C 9,9 C 5,5 C 54 % 99 % 1032,7 hPa 0,0 l/m 0,0 km/h (0 Bft) SW 225 5 min -4,1 C 9,9 C 0,0 km/h (0 Bft)
09.02.2023 14:32 4,4 C 2,6 C 23,2 C 9,9 C 9,9 C 5,5 C 54 % 99 % 1032,7 hPa 0,0 l/m 0,0 km/h (0 Bft) SW 225 1 min -4,1 C 9,9 C 0,0 km/h (0 Bft)
09.02.2023 14:35 4,4 C 2,6 C 23,2 C 9,9 C 9,9 C 5,5 C 54 % 99 % 1032,7 hPa 0,0 l/m 0,0 km/h (0 Bft) SW 225 3 min -4,1 C 9,9 C 0,0 km/h (0 Bft)
09.02.2023 14:40 4,4 C 2,6 C 23,2 C 9,9 C 9,9 C 5,5 C 54 % 99 % 1032,7 hPa 0,0 l/m 0,0 km/h (0 Bft) SW 225 5 min -4,1 C 9,9 C 0,0 km/h (0 Bft)
09.02.2023 14:45 4,6 C 2,6 C 24,2 C 9,9 C 9,9 C 5,3 C 54 % 99 % 1032,7 hPa 0,0 l/m 0,0 km/h (0 Bft) SW 225 5 min -3,9 C 9,9 C 0,0 km/h (0 Bft)
09.02.2023 14:50 4,7 C 2,6 C 24,2 C 9,9 C 9,9 C 5,2 C 54 % 99 % 1032,7 hPa 0,0 l/m 0,0 km/h (0 Bft) SW 225 5 min -3,8 C 9,9 C 0,0 km/h (0 Bft)
09.02.2023 14:55 4,4 C 2,6 C 24,2 C 9,9 C 9,9 C 5,5 C 54 % 99 % 1032,7 hPa 0,0 l/m 0,0 km/h (0 Bft) SW 225 5 min -4,1 C 9,9 C 0,0 km/h (0 Bft)
09.02.2023 15:00 4,5 C 2,6 C 24,2 C 9,9 C 9,9 C 5,4 C 54 % 99 % 1032,7 hPa 0,0 l/m 0,0 km/h (0 Bft) SW 225 5 min -4,0 C 9,9 C 0,0 km/h (0 Bft)
09.02.2023 15:05 4,2 C 2,6 C 24,2 C 9,9 C 9,9 C 5,7 C 53 % 99 % 1032,7 hPa 0,0 l/m 0,0 km/h (0 Bft) SW 225 5 min -4,5 C 9,9 C 0,0 km/h (0 Bft)
09.02.2023 15:10 4,1 C 2,6 C 21,3 C 9,9 C 9,9 C 5,8 C 54 % 99 % 1032,7 hPa 0,0 l/m 0,0 km/h (0 Bft) SW 225 5 min -4,4 C 9,9 C 0,0 km/h (0 Bft)
09.02.2023 15:15 4,1 C 2,6 C 21,3 C 9,9 C 9,9 C 5,8 C 55 % 99 % 1032,7 hPa 0,0 l/m 0,0 km/h (0 Bft) SW 225 5 min -4,1 C 9,9 C 0,0 km/h (0 Bft)
09.02.2023 15:20 4,1 C 2,6 C 21,3 C 9,9 C 9,9 C 5,8 C 55 % 99 % 1032,7 hPa 0,0 l/m 0,0 km/h (0 Bft) SW 225 5 min -4,1 C 9,9 C 0,0 km/h (0 Bft)
09.02.2023 15:26 3,6 C 2,6 C 17,4 C 9,9 C 9,9 C 6,3 C 54 % 99 % 1032,7 hPa 0,0 l/m 0,0 km/h (0 Bft) SW 225 6 min -4,8 C 9,9 C 0,0 km/h (0 Bft)
09.02.2023 15:30 3,6 C 2,6 C 17,4 C 9,9 C 9,9 C 6,3 C 54 % 99 % 1032,7 hPa 0,0 l/m 0,0 km/h (0 Bft) SW 225 4 min -4,8 C 9,9 C 0,0 km/h (0 Bft)
09.02.2023 15:31 3,5 C 2,6 C 18,4 C 2,3 C 0,0 C 0,0 C 55 % 99 % 1032,7 hPa 0,0 l/m 0,0 km/h (0 Bft) SW 225 0 min -4,7 C 0,0 C 0,0 km/h (0 Bft)
09.02.2023 15:36 3,6 C 2,6 C 18,4 C 2,4 C 0,0 C 0,0 C 55 % 99 % 1032,7 hPa 0,0 l/m 0,0 km/h (0 Bft) SW 225 0 min -4,6 C 0,0 C 0,0 km/h (0 Bft)
09.02.2023 15:41 3,5 C 2,6 C 18,5 C 7,2 C 7,2 C 3,7 C 55 % 99 % 1032,7 hPa 0,0 l/m 0,6 km/h (0 Bft) SW 225 5 min -4,7 C 7,2 C 0,0 km/h (0 Bft)
09.02.2023 15:46 3,2 C 2,6 C 18,5 C 7,2 C 7,2 C 4,0 C 56 % 99 % 1032,7 hPa 0,0 l/m 1,0 km/h (0 Bft) SW 225 5 min -4,7 C 7,2 C 1,6 km/h (1 Bft)
09.02.2023 15:51 3,1 C 2,6 C 18,5 C 6,8 C 6,8 C 3,7 C 56 % 99 % 1032,7 hPa 0,0 l/m 0,6 km/h (0 Bft) S-SW 202 5 min -4,8 C 6,8 C 3,5 km/h (1 Bft)
09.02.2023 15:56 3,0 C 2,6 C 18,5 C 6,2 C 6,2 C 3,2 C 56 % 99 % 1032,7 hPa 0,0 l/m 0,8 km/h (0 Bft) SW 225 5 min -4,9 C 6,2 C 0,0 km/h (0 Bft)
09.02.2023 16:01 2,9 C 2,6 C 18,5 C 6,1 C 6,1 C 3,2 C 57 % 99 % 1032,6 hPa 0,0 l/m 0,6 km/h (0 Bft) SW 225 5 min -4,8 C 6,1 C 1,6 km/h (1 Bft)
09.02.2023 16:06 3,1 C 2,6 C 18,5 C 6,1 C 6,1 C 3,0 C 57 % 99 % 1032,6 hPa 0,0 l/m 0,2 km/h (0 Bft) SW 225 5 min -4,6 C 6,1 C 0,0 km/h (0 Bft)
09.02.2023 16:11 3,2 C 2,6 C 18,5 C 5,7 C 5,7 C 2,5 C 57 % 99 % 1032,6 hPa 0,0 l/m 0,2 km/h (0 Bft) SW 225 5 min -4,5 C 5,7 C 0,0 km/h (0 Bft)
09.02.2023 16:16 3,2 C 2,6 C 18,5 C 5,3 C 5,3 C 2,1 C 57 % 99 % 1032,6 hPa 0,0 l/m 0,2 km/h (0 Bft) SW 225 5 min -4,5 C 5,3 C 0,0 km/h (0 Bft)
09.02.2023 16:21 3,1 C 2,6 C 13,4 C 4,8 C 4,8 C 1,7 C 57 % 99 % 1032,6 hPa 0,0 l/m 0,3 km/h (0 Bft) S 180 5 min -4,6 C 4,8 C 0,0 km/h (0 Bft)
09.02.2023 16:26 2,9 C 2,6 C 13,4 C 4,5 C 4,5 C 1,6 C 57 % 99 % 1032,6 hPa 0,0 l/m 0,2 km/h (0 Bft) S-SW 202 5 min -4,8 C 4,5 C 0,0 km/h (0 Bft)
09.02.2023 16:31 2,8 C 2,6 C 13,4 C 3,5 C 3,5 C 0,7 C 57 % 99 % 1032,6 hPa 0,0 l/m 0,0 km/h (0 Bft) S-SW 202 0 min -4,9 C 3,5 C 0,0 km/h (0 Bft)
09.02.2023 16:36 2,7 C 2,6 C 13,4 C 2,8 C 2,8 C 0,1 C 58 % 99 % 1032,6 hPa 0,0 l/m 0,0 km/h (0 Bft) SW 225 0 min -4,7 C 2,8 C 0,0 km/h (0 Bft)
09.02.2023 16:40 2,7 C 2,6 C 13,4 C 2,8 C 2,8 C 0,1 C 58 % 99 % 1032,6 hPa 0,0 l/m 0,0 km/h (0 Bft) SW 225 0 min -4,7 C 2,8 C 0,0 km/h (0 Bft)
09.02.2023 16:45 2,5 C 2,6 C 13,4 C 2,4 C 2,2 C 0,0 C 58 % 99 % 1032,6 hPa 0,0 l/m 0,0 km/h (0 Bft) SW 225 0 min -4,9 C 2,2 C 0,0 km/h (0 Bft)
09.02.2023 16:50 2,3 C 2,6 C 13,4 C 2,1 C 1,8 C 0,0 C 58 % 99 % 1032,6 hPa 0,0 l/m 0,0 km/h (0 Bft) SW 225 0 min -5,1 C 1,8 C 0,0 km/h (0 Bft)
09.02.2023 16:55 2,1 C 2,6 C 13,4 C 1,8 C 1,1 C 0,0 C 58 % 99 % 1032,6 hPa 0,0 l/m 0,0 km/h (0 Bft) SW 225 0 min -5,3 C 1,1 C 0,0 km/h (0 Bft)
09.02.2023 17:00 1,9 C 2,6 C 2,4 C 1,5 C 0,7 C 0,0 C 58 % 99 % 1032,6 hPa 0,0 l/m 0,0 km/h (0 Bft) SO 135 0 min -5,5 C 0,7 C 0,0 km/h (0 Bft)
09.02.2023 17:05 1,4 C 2,7 C 2,4 C 1,0 C 0,2 C 0,0 C 60 % 99 % 1032,6 hPa 0,0 l/m 0,0 km/h (0 Bft) SO 135 0 min -5,5 C 0,2 C 0,0 km/h (0 Bft)
09.02.2023 17:10 1,2 C 2,7 C 2,4 C 0,7 C -0,3 C 0,0 C 60 % 99 % 1032,6 hPa 0,0 l/m 0,0 km/h (0 Bft) SO 135 0 min -5,7 C -0,3 C 0,0 km/h (0 Bft)
09.02.2023 17:15 0,8 C 2,7 C 73,0 C 0,2 C -1,0 C 0,0 C 61 % 99 % 1032,6 hPa 0,0 l/m 0,0 km/h (0 Bft) SO 135 0 min -5,8 C -1,0 C 0,0 km/h (0 Bft)
09.02.2023 17:20 0,5 C 2,7 C 73,0 C -0,1 C -1,3 C 0,0 C 61 % 99 % 1032,6 hPa 0,0 l/m 0,0 km/h (0 Bft) SO 135 0 min -6,1 C -1,3 C 0,0 km/h (0 Bft)
09.02.2023 17:25 0,1 C 2,7 C 73,0 C -0,5 C -1,7 C 0,0 C 63 % 99 % 1032,6 hPa 0,0 l/m 0,0 km/h (0 Bft) SO 135 0 min -6,1 C -1,7 C 0,0 km/h (0 Bft)
09.02.2023 17:30 -0,1 C 2,7 C 73,0 C -0,8 C -2,1 C 0,0 C 64 % 99 % 1032,6 hPa 0,0 l/m 0,0 km/h (0 Bft) SO 135 0 min -6,1 C -2,1 C 0,0 km/h (0 Bft)
09.02.2023 17:35 -0,3 C 2,7 C 73,0 C -1,0 C -2,5 C 0,0 C 65 % 99 % 1032,6 hPa 0,0 l/m 0,0 km/h (0 Bft) SO 135 0 min -6,1 C -2,5 C 0,0 km/h (0 Bft)
09.02.2023 17:40 -0,5 C 2,7 C 73,0 C -1,3 C -2,9 C 0,0 C 64 % 99 % 1032,6 hPa 0,0 l/m 0,0 km/h (0 Bft) SO 135 0 min -6,5 C -2,9 C 0,0 km/h (0 Bft)
09.02.2023 17:45 -0,9 C 2,7 C 73,0 C -1,7 C -3,3 C 0,0 C 65 % 99 % 1032,6 hPa 0,0 l/m 0,0 km/h (0 Bft) SO 135 0 min -6,6 C -3,3 C 0,0 km/h (0 Bft)
09.02.2023 17:50 -1,1 C 2,7 C 73,0 C -1,9 C -3,4 C 0,0 C 66 % 99 % 1032,6 hPa 0,0 l/m 0,0 km/h (0 Bft) SO 135 0 min -6,6 C -3,4 C 0,0 km/h (0 Bft)
09.02.2023 17:55 -1,3 C 2,7 C 73,0 C -2,0 C -3,5 C 0,0 C 67 % 99 % 1032,6 hPa 0,0 l/m 0,0 km/h (0 Bft) SO 135 0 min -6,6 C -3,5 C 0,0 km/h (0 Bft)
09.02.2023 18:00 -1,3 C 2,7 C 73,0 C -2,0 C -3,5 C 0,0 C 68 % 99 % 1032,6 hPa 0,0 l/m 0,0 km/h (0 Bft) SO 135 0 min -6,4 C -3,5 C 0,0 km/h (0 Bft)
09.02.2023 18:05 -1,6 C 2,7 C 73,0 C -2,3 C -3,6 C 0,0 C 69 % 99 % 1032,6 hPa 0,0 l/m 0,0 km/h (0 Bft) O-NO 67 0 min -6,5 C -3,6 C 0,0 km/h (0 Bft)
09.02.2023 18:11 -1,7 C 2,7 C 73,0 C -2,4 C -3,7 C 0,0 C 71 % 99 % 1032,6 hPa 0,0 l/m 0,0 km/h (0 Bft) N 0 0 min -6,2 C -3,7 C 0,0 km/h (0 Bft)
09.02.2023 18:16 -1,7 C 2,7 C 73,0 C -2,4 C -3,7 C 0,0 C 71 % 99 % 1032,6 hPa 0,0 l/m 0,0 km/h (0 Bft) NW 315 0 min -6,2 C -3,7 C 0,0 km/h (0 Bft)
09.02.2023 18:21 -1,9 C 2,7 C 73,0 C -2,5 C -3,7 C 0,0 C 72 % 99 % 1032,6 hPa 0,0 l/m 0,0 km/h (0 Bft) W 270 0 min -6,3 C -3,7 C 0,0 km/h (0 Bft)
09.02.2023 18:26 -2,0 C 2,7 C 73,0 C -2,6 C -3,7 C 0,0 C 72 % 99 % 1032,6 hPa 0,0 l/m 0,0 km/h (0 Bft) W 270 0 min -6,4 C -3,7 C 0,0 km/h (0 Bft)
09.02.2023 18:31 -2,2 C 2,7 C 73,0 C -2,7 C -3,7 C 0,0 C 73 % 99 % 1032,6 hPa 0,0 l/m 0,0 km/h (0 Bft) O-NO 67 0 min -6,4 C -3,7 C 0,0 km/h (0 Bft)
09.02.2023 18:32 -2,2 C 2,7 C 73,0 C -2,7 C -3,7 C 0,0 C 73 % 99 % 1032,6 hPa 0,0 l/m 0,0 km/h (0 Bft) O-NO 67 0 min -6,4 C -3,7 C 0,0 km/h (0 Bft)
09.02.2023 18:35 -2,2 C 2,7 C 73,0 C -2,7 C -3,7 C 0,0 C 73 % 99 % 1032,6 hPa 0,0 l/m 0,0 km/h (0 Bft) O-NO 67 0 min -6,4 C -3,7 C 0,0 km/h (0 Bft)
09.02.2023 18:40 -2,3 C 2,7 C 73,0 C -2,8 C -3,7 C 0,0 C 73 % 99 % 1032,6 hPa 0,0 l/m 0,0 km/h (0 Bft) O-NO 67 0 min -6,5 C -3,7 C 0,0 km/h (0 Bft)
09.02.2023 18:45 -2,5 C 2,7 C 73,0 C -2,9 C -3,7 C 0,0 C 73 % 99 % 1032,6 hPa 0,0 l/m 0,0 km/h (0 Bft) O-NO 67 0 min -6,7 C -3,7 C 0,0 km/h (0 Bft)
09.02.2023 18:50 -2,5 C 2,7 C 73,0 C -2,9 C -3,7 C 0,0 C 74 % 99 % 1032,6 hPa 0,0 l/m 0,0 km/h (0 Bft) NW 315 0 min -6,5 C -3,7 C 0,0 km/h (0 Bft)
09.02.2023 18:55 -2,5 C 2,7 C 73,0 C -3,0 C -3,9 C 0,0 C 75 % 99 % 1032,6 hPa 0,0 l/m 0,0 km/h (0 Bft) O-NO 67 0 min -6,3 C -3,9 C 0,0 km/h (0 Bft)
09.02.2023 19:00 -2,5 C 2,7 C 73,0 C -2,9 C -3,8 C 0,0 C 75 % 99 % 1032,6 hPa 0,0 l/m 0,0 km/h (0 Bft) O-NO 67 0 min -6,3 C -3,8 C 0,0 km/h (0 Bft)
09.02.2023 19:05 -2,7 C 2,7 C 73,0 C -3,2 C -4,1 C 0,0 C 75 % 99 % 1032,6 hPa 0,0 l/m 0,0 km/h (0 Bft) O-NO 67 0 min -6,5 C -4,1 C 0,0 km/h (0 Bft)
09.02.2023 19:10 -2,8 C 2,7 C 73,0 C -3,3 C -4,4 C 0,0 C 75 % 99 % 1032,6 hPa 0,0 l/m 0,0 km/h (0 Bft) O-NO 67 0 min -6,6 C -4,4 C 0,0 km/h (0 Bft)
09.02.2023 19:15 -2,9 C 2,7 C 73,0 C -3,5 C -4,6 C 0,0 C 75 % 99 % 1032,6 hPa 0,0 l/m 0,0 km/h (0 Bft) O-NO 67 0 min -6,7 C -4,6 C 0,0 km/h (0 Bft)
09.02.2023 19:20 -2,9 C 2,7 C 73,0 C -3,5 C -4,7 C 0,0 C 76 % 99 % 1032,6 hPa 0,0 l/m 0,0 km/h (0 Bft) W-NW 292 0 min -6,5 C -4,7 C 0,0 km/h (0 Bft)
09.02.2023 19:25 -3,0 C 2,7 C 73,0 C -3,6 C -4,7 C 0,0 C 76 % 99 % 1032,6 hPa 0,0 l/m 0,0 km/h (0 Bft) O-SO 112 0 min -6,6 C -4,7 C 0,0 km/h (0 Bft)
09.02.2023 19:30 -2,9 C 2,7 C 73,0 C -3,5 C -4,7 C 0,0 C 76 % 99 % 1032,6 hPa 0,0 l/m 0,0 km/h (0 Bft) O-SO 112 0 min -6,5 C -4,7 C 0,0 km/h (0 Bft)
09.02.2023 19:35 -3,1 C 2,7 C 73,0 C -3,6 C -4,7 C 0,0 C 76 % 99 % 1032,6 hPa 0,0 l/m 0,0 km/h (0 Bft) W 270 0 min -6,7 C -4,7 C 0,0 km/h (0 Bft)
09.02.2023 19:40 -2,9 C 2,7 C 73,0 C -3,5 C -4,7 C 0,0 C 77 % 99 % 1032,6 hPa 0,0 l/m 0,0 km/h (0 Bft) W 270 0 min -6,4 C -4,7 C 0,0 km/h (0 Bft)
09.02.2023 19:45 -2,9 C 2,7 C 73,0 C -3,4 C -4,5 C 0,0 C 77 % 99 % 1032,6 hPa 0,0 l/m 0,0 km/h (0 Bft) S-SO 157 0 min -6,4 C -4,5 C 0,0 km/h (0 Bft)
09.02.2023 19:50 -3,1 C 2,7 C 73,0 C -3,5 C -4,4 C 0,0 C 77 % 99 % 1032,6 hPa 0,0 l/m 0,0 km/h (0 Bft) S-SO 157 0 min -6,5 C -4,4 C 0,0 km/h (0 Bft)
09.02.2023 19:55 -3,1 C 2,7 C 73,0 C -3,5 C -4,4 C 0,0 C 77 % 99 % 1032,6 hPa 0,0 l/m 0,0 km/h (0 Bft) S-SO 157 0 min -6,5 C -4,4 C 0,0 km/h (0 Bft)
09.02.2023 20:00 -3,1 C 2,7 C 73,0 C -3,5 C -4,4 C 0,0 C 77 % 99 % 1032,6 hPa 0,0 l/m 0,0 km/h (0 Bft) S-SO 157 0 min -6,5 C -4,4 C 0,0 km/h (0 Bft)
09.02.2023 20:05 -3,1 C 2,7 C 73,0 C -3,5 C -4,4 C 0,0 C 77 % 99 % 1032,6 hPa 0,0 l/m 0,0 km/h (0 Bft) S-SO 157 0 min -6,5 C -4,4 C 0,0 km/h (0 Bft)
09.02.2023 20:11 -3,1 C 2,7 C 73,0 C -3,5 C -4,4 C 0,0 C 78 % 99 % 1032,6 hPa 0,0 l/m 0,0 km/h (0 Bft) N 0 0 min -6,4 C -4,4 C 0,0 km/h (0 Bft)
09.02.2023 20:16 -3,2 C 2,7 C 73,0 C -3,6 C -4,4 C 0,0 C 77 % 99 % 1032,6 hPa 0,0 l/m 0,0 km/h (0 Bft) W-NW 292 0 min -6,6 C -4,4 C 0,0 km/h (0 Bft)
09.02.2023 20:21 -3,3 C 2,7 C 73,0 C -3,7 C -4,4 C 0,0 C 77 % 99 % 1032,6 hPa 0,0 l/m 0,0 km/h (0 Bft) W-NW 292 0 min -6,7 C -4,4 C 0,0 km/h (0 Bft)
09.02.2023 20:26 -3,2 C 2,7 C 73,0 C -3,6 C -4,4 C 0,0 C 78 % 99 % 1032,6 hPa 0,0 l/m 0,0 km/h (0 Bft) W-NW 292 0 min -6,5 C -4,4 C 0,0 km/h (0 Bft)
09.02.2023 20:31 -3,1 C 2,7 C 73,0 C -3,5 C -4,4 C 0,0 C 78 % 99 % 1032,6 hPa 0,0 l/m 0,0 km/h (0 Bft) W-NW 292 0 min -6,4 C -4,4 C 0,0 km/h (0 Bft)
09.02.2023 20:32 -3,1 C 2,7 C 73,0 C -3,5 C -4,4 C 0,0 C 78 % 99 % 1032,6 hPa 0,0 l/m 0,0 km/h (0 Bft) W-NW 292 0 min -6,4 C -4,4 C 0,0 km/h (0 Bft)
09.02.2023 20:35 -3,1 C 2,7 C 73,0 C -3,5 C -4,4 C 0,0 C 78 % 99 % 1032,6 hPa 0,0 l/m 0,0 km/h (0 Bft) W-NW 292 0 min -6,4 C -4,4 C 0,0 km/h (0 Bft)
09.02.2023 20:40 -3,1 C 2,7 C 73,0 C -3,5 C -4,4 C 0,0 C 78 % 99 % 1032,6 hPa 0,0 l/m 0,0 km/h (0 Bft) W-NW 292 0 min -6,4 C -4,4 C 0,0 km/h (0 Bft)
09.02.2023 20:45 -3,1 C 2,7 C 73,0 C -3,5 C -4,4 C 0,0 C 78 % 99 % 1032,6 hPa 0,0 l/m 0,0 km/h (0 Bft) W-NW 292 0 min -6,4 C -4,4 C 0,0 km/h (0 Bft)
09.02.2023 20:50 -2,9 C 2,7 C 73,0 C -3,4 C -4,4 C 0,0 C 78 % 99 % 1032,6 hPa 0,0 l/m 0,0 km/h (0 Bft) W-NW 292 0 min -6,2 C -4,4 C 0,0 km/h (0 Bft)
09.02.2023 20:55 -3,1 C 2,7 C 73,0 C -3,5 C -4,4 C 0,0 C 77 % 99 % 1032,6 hPa 0,0 l/m 0,0 km/h (0 Bft) W-NW 292 0 min -6,5 C -4,4 C 0,0 km/h (0 Bft)
09.02.2023 21:00 -3,2 C 2,7 C 73,0 C -3,6 C -4,4 C 0,0 C 77 % 99 % 1032,6 hPa 0,0 l/m 0,0 km/h (0 Bft) W-NW 292 0 min -6,6 C -4,4 C 0,0 km/h (0 Bft)
09.02.2023 21:05 -3,2 C 2,7 C 73,0 C -3,6 C -4,4 C 0,0 C 78 % 99 % 1032,6 hPa 0,0 l/m 0,0 km/h (0 Bft) W-NW 292 0 min -6,5 C -4,4 C 0,0 km/h (0 Bft)
09.02.2023 21:10 -3,1 C 2,7 C 73,0 C -3,5 C -4,4 C 0,0 C 78 % 99 % 1032,6 hPa 0,0 l/m 0,0 km/h (0 Bft) W-NW 292 0 min -6,4 C -4,4 C 0,0 km/h (0 Bft)
09.02.2023 21:15 -3,3 C 2,7 C 73,0 C -3,7 C -4,4 C 0,0 C 77 % 99 % 1032,6 hPa 0,0 l/m 0,0 km/h (0 Bft) W-NW 292 0 min -6,7 C -4,4 C 0,0 km/h (0 Bft)
09.02.2023 21:20 -3,4 C 2,7 C 73,0 C -3,7 C -4,4 C 0,0 C 77 % 99 % 1032,6 hPa 0,0 l/m 0,0 km/h (0 Bft) W-NW 292 0 min -6,8 C -4,4 C 0,0 km/h (0 Bft)
09.02.2023 21:25 -3,3 C 2,7 C 73,0 C -3,7 C -4,4 C 0,0 C 78 % 99 % 1032,6 hPa 0,0 l/m 0,0 km/h (0 Bft) W-NW 292 0 min -6,6 C -4,4 C 0,0 km/h (0 Bft)
09.02.2023 21:30 -3,3 C 2,7 C 73,0 C -3,7 C -4,4 C 0,0 C 78 % 99 % 1032,6 hPa 0,0 l/m 0,0 km/h (0 Bft) W-NW 292 0 min -6,6 C -4,4 C 0,0 km/h (0 Bft)
09.02.2023 21:35 -3,3 C 2,7 C 73,0 C -3,7 C -4,4 C 0,0 C 78 % 99 % 1032,6 hPa 0,0 l/m 0,0 km/h (0 Bft) W-NW 292 0 min -6,6 C -4,4 C 0,0 km/h (0 Bft)
09.02.2023 21:40 -3,3 C 2,7 C 73,0 C -3,7 C -4,4 C 0,0 C 78 % 99 % 1032,6 hPa 0,0 l/m 0,0 km/h (0 Bft) W-NW 292 0 min -6,6 C -4,4 C 0,0 km/h (0 Bft)
09.02.2023 21:45 -3,1 C 2,7 C 73,0 C -3,5 C -4,4 C 0,0 C 78 % 99 % 1032,6 hPa 0,0 l/m 0,0 km/h (0 Bft) W-NW 292 0 min -6,4 C -4,4 C 0,0 km/h (0 Bft)
09.02.2023 21:50 -3,1 C 2,7 C 73,0 C -3,5 C -4,4 C 0,0 C 78 % 99 % 1032,6 hPa 0,0 l/m 0,0 km/h (0 Bft) W-NW 292 0 min -6,4 C -4,4 C 0,0 km/h (0 Bft)
09.02.2023 21:55 -2,9 C 2,7 C 73,0 C -3,4 C -4,4 C 0,0 C 79 % 99 % 1032,6 hPa 0,0 l/m 0,0 km/h (0 Bft) W-NW 292 0 min -6,0 C -4,4 C 0,0 km/h (0 Bft)
09.02.2023 22:00 -2,8 C 2,7 C 73,0 C -3,3 C -4,4 C 0,0 C 78 % 99 % 1032,6 hPa 0,0 l/m 0,0 km/h (0 Bft) W-NW 292 0 min -6,1 C -4,4 C 0,0 km/h (0 Bft)
09.02.2023 22:05 -2,7 C 2,7 C 73,0 C -3,3 C -4,4 C 0,0 C 78 % 99 % 1032,6 hPa 0,0 l/m 0,0 km/h (0 Bft) W-NW 292 0 min -6,0 C -4,4 C 0,0 km/h (0 Bft)
09.02.2023 22:11 -2,5 C 2,7 C 73,0 C -3,1 C -4,4 C 0,0 C 77 % 99 % 1032,6 hPa 0,0 l/m 0,0 km/h (0 Bft) N 0 0 min -6,0 C -4,4 C 0,0 km/h (0 Bft)
09.02.2023 22:26 -2,9 C 2,7 C 73,0 C -3,4 C -4,4 C 0,0 C 76 % 99 % 1032,6 hPa 0,0 l/m 0,0 km/h (0 Bft) W-NW 292 0 min -6,5 C -4,4 C 0,0 km/h (0 Bft)
09.02.2023 22:30 -2,9 C 2,7 C 73,0 C -3,4 C -4,4 C 0,0 C 76 % 99 % 1032,6 hPa 0,0 l/m 0,0 km/h (0 Bft) W-NW 292 0 min -6,5 C -4,4 C 0,0 km/h (0 Bft)
09.02.2023 22:35 -2,9 C 2,7 C 73,0 C -3,4 C -4,4 C 0,0 C 76 % 99 % 1032,6 hPa 0,0 l/m 0,0 km/h (0 Bft) W-NW 292 0 min -6,5 C -4,4 C 0,0 km/h (0 Bft)
09.02.2023 22:40 -2,9 C 2,7 C 73,0 C -3,4 C -4,4 C 0,0 C 76 % 99 % 1032,6 hPa 0,0 l/m 0,0 km/h (0 Bft) W-NW 292 0 min -6,5 C -4,4 C 0,0 km/h (0 Bft)
09.02.2023 22:45 -3,1 C 2,7 C 73,0 C -3,5 C -4,4 C 0,0 C 77 % 99 % 1032,6 hPa 0,0 l/m 0,0 km/h (0 Bft) W-NW 292 0 min -6,5 C -4,4 C 0,0 km/h (0 Bft)
09.02.2023 22:50 -3,1 C 2,7 C 73,0 C -3,5 C -4,4 C 0,0 C 77 % 99 % 1032,6 hPa 0,0 l/m 0,0 km/h (0 Bft) W-NW 292 0 min -6,5 C -4,4 C 0,0 km/h (0 Bft)
09.02.2023 22:55 -3,1 C 2,7 C 73,0 C -3,5 C -4,4 C 0,0 C 77 % 99 % 1032,6 hPa 0,0 l/m 0,0 km/h (0 Bft) W-NW 292 0 min -6,5 C -4,4 C 0,0 km/h (0 Bft)
09.02.2023 23:00 -3,1 C 2,7 C 73,0 C -3,5 C -4,4 C 0,0 C 77 % 99 % 1032,6 hPa 0,0 l/m 0,0 km/h (0 Bft) W-NW 292 0 min -6,5 C -4,4 C 0,0 km/h (0 Bft)
09.02.2023 23:05 -3,3 C 2,7 C 73,0 C -3,7 C -4,4 C 0,0 C 77 % 99 % 1032,6 hPa 0,0 l/m 0,0 km/h (0 Bft) W-NW 292 0 min -6,7 C -4,4 C 0,0 km/h (0 Bft)
09.02.2023 23:10 -3,3 C 2,7 C 73,0 C -3,7 C -4,4 C 0,0 C 77 % 99 % 1032,6 hPa 0,0 l/m 0,0 km/h (0 Bft) W-NW 292 0 min -6,7 C -4,4 C 0,0 km/h (0 Bft)
09.02.2023 23:15 -3,3 C 2,7 C 73,0 C -3,7 C -4,4 C 0,0 C 77 % 99 % 1032,6 hPa 0,0 l/m 0,0 km/h (0 Bft) W-NW 292 0 min -6,7 C -4,4 C 0,0 km/h (0 Bft)
09.02.2023 23:20 -3,3 C 2,7 C 73,0 C -3,7 C -4,4 C 0,0 C 78 % 99 % 1032,6 hPa 0,0 l/m 0,0 km/h (0 Bft) W-NW 292 0 min -6,6 C -4,4 C 0,0 km/h (0 Bft)
09.02.2023 23:25 -3,3 C 2,7 C 73,0 C -3,7 C -4,4 C 0,0 C 78 % 99 % 1032,6 hPa 0,0 l/m 0,0 km/h (0 Bft) W-NW 292 0 min -6,6 C -4,4 C 0,0 km/h (0 Bft)
09.02.2023 23:30 -3,3 C 2,7 C 73,0 C -3,7 C -4,4 C 0,0 C 78 % 99 % 1032,6 hPa 0,0 l/m 0,0 km/h (0 Bft) W-NW 292 0 min -6,6 C -4,4 C 0,0 km/h (0 Bft)
09.02.2023 23:35 -3,1 C 2,7 C 73,0 C -3,5 C -4,4 C 0,0 C 78 % 99 % 1032,6 hPa 0,0 l/m 0,0 km/h (0 Bft) W-NW 292 0 min -6,4 C -4,4 C 0,0 km/h (0 Bft)
09.02.2023 23:40 -2,9 C 2,7 C 73,0 C -3,4 C -4,4 C 0,0 C 78 % 99 % 1032,6 hPa 0,0 l/m 0,0 km/h (0 Bft) W-NW 292 0 min -6,2 C -4,4 C 0,0 km/h (0 Bft)
09.02.2023 23:45 -2,9 C 2,7 C 73,0 C -3,4 C -4,4 C 0,0 C 78 % 99 % 1032,6 hPa 0,0 l/m 0,0 km/h (0 Bft) W-NW 292 0 min -6,2 C -4,4 C 0,0 km/h (0 Bft)
09.02.2023 23:50 -2,9 C 2,7 C 73,0 C -3,4 C -4,4 C 0,0 C 78 % 99 % 1032,6 hPa 0,0 l/m 0,0 km/h (0 Bft) W-NW 292 0 min -6,2 C -4,4 C 0,0 km/h (0 Bft)
09.02.2023 23:55 -2,9 C 2,7 C 73,0 C -3,4 C -4,4 C 0,0 C 78 % 99 % 1032,6 hPa 0,0 l/m 0,0 km/h (0 Bft) W-NW 292 0 min -6,2 C -4,4 C 0,0 km/h (0 Bft)
_ Min-Zeit 07:06 12:50 14:16 07:06 05:26 00:01 15:05 14:16 16:01 - 00:01 - - - 07:06 05:26 00:01
Minimum _ -11,2 C 2,6 C 0,0 C -11,7 C -12,7 C 0,0 C 53 % 0 % 1032,6 hPa - 0,0 km/h (0 Bft) - - - -13,1 C -12,7 C 0,0 km/h (0 Bft)
_ Max-Zeit 14:11 00:01 10:55 14:11 14:11 15:26 09:55 00:01 00:01 00:01 13:35 - - 12:11 12:05 14:11 13:55
Maximum _ 4,7 C 3,2 C 73,0 C 10,0 C 10,0 C 6,3 C 89 % 99 % 1036,6 hPa 0,0 l/m 2,9 km/h
S (1 Bft)
- - 6 min -2,4 C 10,0 C 11,6 km/h
S (2 Bft)
Durchschnitt _ -4,6 C 2,8 C 53,9 C -3,8 C -4,4 C 1,1 C 77 % 98 % 1034,3 hPa #0,0 l/m 0,1 km/h (0 Bft) SW - #4:25 h -8,1 C -4,4 C 0,3 km/h (0 Bft)
2023 www.wetterstation-wechselburg.de